Location: Augustenthal
(51.7167°N, 10.2833°E)
Time: 08:50:58
(UTC+00:00)

BREEZE-M DEB (TANK) - Pass Details

Date: 18 May 2021
Orbit: 284 x 18731 km, 52.5° (Epoch: 15 June)

Event Time Altitude Azimuth Distance (km) Brightness Sun altitude
Rises 19:41:43 0° 251° (WSW) 9,497 9.5 -4.7°
Reaches altitude 10° 19:51:00 10° 253° (WSW) 5,963 8.5 -5.8°
Maximum altitude 20:03:07 87° 166° (SSE) 872 3.8 -7.2°
Drops below altitude 10° 20:06:23 10° 78° (ENE) 1,711 5.0 -7.5°
Sets 20:07:40 0° 78° (ENE) 2,326 5.7 -7.7°
